When you browse on this site, cookies collect data to enhance your experience and personalize the content and advertising you see.
Visit our Privacy Policy to learn more. By continuing to use the site, you agree to this use of cookies and data.
  • In Deutschland
  • Länderverzeichnis
  • Für 7 Tage
  • Wassertemperatur
  • Wetterkarte
  • Widgets
  • user-avatar
    Anmelden

    Stündliche Wetter Berlin

    Heute, 6 Juni, Samstag

    Zeit Temperatur Niederschläge Wind Luftdruck Luftfeuchtigkeit
    00:00 +9°C° 0 mm 6 m/S 743 mmHg 83%
    01:00 +8°C° 0 mm 5 m/S 744 mmHg 85%
    02:00 +7°C° 0 mm 4 m/S 744 mmHg 85%
    03:00 +7°C° 0 mm 4 m/S 745 mmHg 85%
    04:00 +6°C° 0 mm 4 m/S 746 mmHg 86%
    05:00 +8°C° 0 mm 4 m/S 746 mmHg 81%
    06:00 +9°C° 0 mm 5 m/S 746 mmHg 76%
    07:00 +11°C° 0 mm 4 m/S 747 mmHg 70%
    08:00 +13°C° 0 mm 5 m/S 747 mmHg 61%
    09:00 +14°C° 0 mm 5 m/S 747 mmHg 51%
    10:00 +16°C° 0 mm 6 m/S 747 mmHg 42%
    11:00 +17°C° 0 mm 5 m/S 747 mmHg 41%
    12:00 +17°C° 0 mm 5 m/S 748 mmHg 40%
    13:00 +19°C° 0 mm 5 m/S 748 mmHg 39%
    14:00 +19°C° 0.1 mm 5 m/S 748 mmHg 43%
    15:00 +19°C° 0.1 mm 5 m/S 748 mmHg 48%
    16:00 +17°C° 0.1 mm 5 m/S 748 mmHg 52%
    17:00 +17°C° 0.1 mm 5 m/S 748 mmHg 56%
    18:00 +17°C° 0.1 mm 4 m/S 748 mmHg 60%
    19:00 +17°C° 0.1 mm 3 m/S 749 mmHg 64%
    20:00 +14°C° 0 mm 3 m/S 749 mmHg 70%
    21:00 +14°C° 0 mm 2 m/S 749 mmHg 75%
    22:00 +13°C° 0 mm 2 m/S 750 mmHg 81%
    23:00 +12°C° 0 mm 2 m/S 750 mmHg 83%

    Morgen, 7 Juni, Sonntag

    Zeit Temperatur Niederschläge Wind Luftdruck Luftfeuchtigkeit
    00:00 +12°C° 0 mm 2 m/S 750 mmHg 84%
    01:00 +12°C° 0 mm 2 m/S 750 mmHg 86%
    02:00 +10°C° 0 mm 2 m/S 750 mmHg 88%
    03:00 +10°C° 0 mm 3 m/S 750 mmHg 89%
    04:00 +10°C° 0 mm 3 m/S 751 mmHg 91%
    05:00 +11°C° 0 mm 3 m/S 751 mmHg 85%
    06:00 +13°C° 0 mm 3 m/S 751 mmHg 79%
    07:00 +14°C° 0 mm 3 m/S 751 mmHg 74%
    08:00 +14°C° 0 mm 3 m/S 751 mmHg 73%
    09:00 +14°C° 0 mm 4 m/S 751 mmHg 73%
    10:00 +14°C° 0 mm 4 m/S 752 mmHg 72%
    11:00 +15°C° 0 mm 4 m/S 752 mmHg 66%
    12:00 +17°C° 0 mm 4 m/S 752 mmHg 60%
    13:00 +18°C° 0 mm 4 m/S 752 mmHg 54%
    14:00 +19°C° 0 mm 4 m/S 752 mmHg 52%
    15:00 +19°C° 0 mm 4 m/S 752 mmHg 49%
    16:00 +20°C° 0 mm 4 m/S 752 mmHg 46%
    17:00 +19°C° 0 mm 3 m/S 752 mmHg 50%
    18:00 +18°C° 0 mm 3 m/S 752 mmHg 54%
    19:00 +17°C° 0 mm 3 m/S 752 mmHg 58%
    20:00 +16°C° 0 mm 3 m/S 753 mmHg 61%
    21:00 +16°C° 0 mm 2 m/S 753 mmHg 65%
    22:00 +15°C° 0 mm 2 m/S 754 mmHg 69%
    23:00 +14°C° 0 mm 2 m/S 754 mmHg 72%

    übermorgen, 8 Juni, Montag

    Zeit Temperatur Niederschläge Wind Luftdruck Luftfeuchtigkeit
    00:00 +14°C° 0 mm 2 m/S 754 mmHg 75%
    01:00 +13°C° 0 mm 2 m/S 754 mmHg 78%
    02:00 +13°C° 0 mm 2 m/S 754 mmHg 79%
    03:00 +13°C° 0 mm 2 m/S 754 mmHg 80%
    04:00 +12°C° 0 mm 2 m/S 754 mmHg 81%
    05:00 +13°C° 0 mm 2 m/S 754 mmHg 78%
    06:00 +14°C° 0 mm 2 m/S 755 mmHg 74%
    07:00 +15°C° 0 mm 2 m/S 755 mmHg 71%
    08:00 +16°C° 0 mm 2 m/S 755 mmHg 62%
    09:00 +18°C° 0 mm 2 m/S 755 mmHg 54%
    10:00 +19°C° 0 mm 2 m/S 756 mmHg 46%
    11:00 +20°C° 0 mm 2 m/S 755 mmHg 44%
    12:00 +21°C° 0 mm 2 m/S 755 mmHg 43%
    13:00 +21°C° 0 mm 2 m/S 755 mmHg 41%
    14:00 +21°C° 0 mm 2 m/S 755 mmHg 42%
    15:00 +21°C° 0 mm 2 m/S 755 mmHg 42%
    16:00 +23°C° 0 mm 2 m/S 755 mmHg 43%
    17:00 +22°C° 0 mm 1 m/S 755 mmHg 47%
    18:00 +21°C° 0 mm 1 m/S 755 mmHg 51%
    19:00 +21°C° 0 mm 1 m/S 755 mmHg 55%
    20:00 +19°C° 0 mm 1 m/S 755 mmHg 60%
    21:00 +18°C° 0 mm 1 m/S 756 mmHg 64%
    22:00 +15°C° 0 mm 1 m/S 756 mmHg 69%
    23:00 +15°C° 0 mm 1 m/S 756 mmHg 72%

    9 Juni, Dienstag

    Zeit Temperatur Niederschläge Wind Luftdruck Luftfeuchtigkeit
    00:00 +14°C° 0 mm 1 m/S 757 mmHg 75%
    01:00 +14°C° 0 mm 1 m/S 757 mmHg 78%
    02:00 +13°C° 0 mm 1 m/S 757 mmHg 81%
    03:00 +12°C° 0 mm 1 m/S 757 mmHg 84%
    04:00 +12°C° 0 mm 2 m/S 757 mmHg 88%
    05:00 +13°C° 0 mm 2 m/S 757 mmHg 83%
    06:00 +14°C° 0 mm 2 m/S 758 mmHg 78%
    07:00 +15°C° 0 mm 2 m/S 758 mmHg 74%
    08:00 +17°C° 0 mm 2 m/S 758 mmHg 67%
    09:00 +19°C° 0 mm 2 m/S 758 mmHg 60%
    10:00 +20°C° 0 mm 2 m/S 759 mmHg 53%
    11:00 +21°C° 0 mm 2 m/S 759 mmHg 51%
    12:00 +23°C° 0 mm 2 m/S 759 mmHg 48%
    13:00 +23°C° 0 mm 2 m/S 759 mmHg 46%
    14:00 +22°C° 0 mm 3 m/S 758 mmHg 46%
    15:00 +22°C° 0 mm 3 m/S 758 mmHg 46%
    16:00 +22°C° 0 mm 3 m/S 758 mmHg 47%
    17:00 +22°C° 0 mm 3 m/S 758 mmHg 52%
    18:00 +21°C° 0 mm 3 m/S 758 mmHg 56%
    19:00 +20°C° 0 mm 3 m/S 759 mmHg 61%
    20:00 +18°C° 0 mm 3 m/S 759 mmHg 68%
    21:00 +16°C° 0 mm 3 m/S 759 mmHg 75%
    22:00 +14°C° 0 mm 3 m/S 760 mmHg 81%
    23:00 +13°C° 0 mm 3 m/S 760 mmHg 81%

    10 Juni, Mittwoch

    Zeit Temperatur Niederschläge Wind Luftdruck Luftfeuchtigkeit
    00:00 +12°C° 0 mm 3 m/S 760 mmHg 81%
    01:00 +12°C° 0 mm 3 m/S 760 mmHg 81%
    02:00 +11°C° 0 mm 3 m/S 760 mmHg 80%
    03:00 +11°C° 0 mm 3 m/S 760 mmHg 79%
    04:00 +11°C° 0 mm 3 m/S 760 mmHg 79%
    05:00 +12°C° 0 mm 3 m/S 760 mmHg 74%
    06:00 +13°C° 0 mm 3 m/S 760 mmHg 69%
    07:00 +14°C° 0 mm 3 m/S 760 mmHg 64%
    08:00 +17°C° 0 mm 4 m/S 760 mmHg 60%
    09:00 +19°C° 0 mm 4 m/S 760 mmHg 56%
    10:00 +20°C° 0 mm 4 m/S 760 mmHg 52%
    11:00 +21°C° 0 mm 4 m/S 759 mmHg 50%
    12:00 +22°C° 0 mm 4 m/S 759 mmHg 48%
    13:00 +23°C° 0 mm 4 m/S 759 mmHg 46%
    14:00 +23°C° 0 mm 4 m/S 758 mmHg 46%
    15:00 +23°C° 0 mm 5 m/S 758 mmHg 46%
    16:00 +23°C° 0 mm 5 m/S 758 mmHg 46%
    17:00 +21°C° 0 mm 5 m/S 758 mmHg 50%
    18:00 +20°C° 0 mm 5 m/S 758 mmHg 54%
    19:00 +19°C° 0 mm 5 m/S 758 mmHg 57%
    20:00 +17°C° 0 mm 4 m/S 758 mmHg 61%
    21:00 +15°C° 0 mm 4 m/S 758 mmHg 64%
    22:00 +13°C° 0 mm 4 m/S 758 mmHg 67%
    23:00 +13°C° 0 mm 4 m/S 758 mmHg 68%

    11 Juni, Donnerstag

    Zeit Temperatur Niederschläge Wind Luftdruck Luftfeuchtigkeit
    00:00 +12°C° 0 mm 4 m/S 758 mmHg 69%
    01:00 +12°C° 0 mm 3 m/S 757 mmHg 69%
    02:00 +12°C° 0 mm 3 m/S 757 mmHg 71%
    03:00 +12°C° 0 mm 3 m/S 757 mmHg 72%
    04:00 +11°C° 0 mm 3 m/S 757 mmHg 73%
    05:00 +12°C° 0 mm 3 m/S 757 mmHg 73%
    06:00 +13°C° 0 mm 3 m/S 756 mmHg 73%
    07:00 +13°C° 0 mm 3 m/S 756 mmHg 73%
    08:00 +14°C° 0.2 mm 3 m/S 756 mmHg 72%
    09:00 +14°C° 0.2 mm 3 m/S 756 mmHg 71%
    10:00 +16°C° 0.2 mm 3 m/S 755 mmHg 70%
    11:00 +16°C° 0.6 mm 3 m/S 755 mmHg 74%
    12:00 +16°C° 0.6 mm 3 m/S 754 mmHg 78%
    13:00 +16°C° 0.6 mm 3 m/S 754 mmHg 82%
    14:00 +16°C° 0.1 mm 3 m/S 754 mmHg 82%
    15:00 +17°C° 0.1 mm 3 m/S 753 mmHg 83%
    16:00 +17°C° 0.1 mm 3 m/S 753 mmHg 83%
    17:00 +17°C° 0 mm 2 m/S 753 mmHg 85%
    18:00 +17°C° 0 mm 2 m/S 753 mmHg 87%
    19:00 +17°C° 0 mm 2 m/S 752 mmHg 89%
    20:00 +16°C° 0 mm 2 m/S 752 mmHg 90%
    21:00 +16°C° 0 mm 1 m/S 752 mmHg 92%
    22:00 +16°C° 0 mm 1 m/S 752 mmHg 93%
    23:00 +16°C° 0 mm 1 m/S 752 mmHg 94%
    Mehr zeigen